Temperature
21 20 19 19 18 18 20 21 22 22 22 22 23 23 22 21 21 20 20 21 21 20 20 19 19 20 20 20 20 20 20 20 19 19 19 19 19 19 18 18 18 18 18 18 18 18 18 18 18
21 20 19 19 19 20 21 22 22 23 23 23 23 22 21 21 20 20 20 20 20 20 20 20 20 20 20 20 20 20 20 19 19 19 19 19 19 18 18 18 18 18 18 18 18 18 18 17 17
21 20 19 18 19 20 22 23 23 23 23 23 22 22 21 20 20 20 20 20 20 20 20 20 20 20 20 20 20 20 20 19 19 19 19 19 18 18 18 18 18 18 18 18 18 17 17 17 17
21 20 19 18 20 21 22 23 23 23 23 22 22 21 20 20 20 20 20 20 20 20 20 20 20 20 20 20 20 20 19 19 19 19 19 18 18 18 18 18 18 18 18 18 18 17 17 17 17
21 20 18 18 20 21 23 24 24 23 23 22 22 20 19 20 20 20 20 20 20 20 20 20 20 20 20 20 20 19 19 19 19 19 18 18 18 18 18 18 18 18 18 18 17 17 17 17 17
21 18 18 19 21 23 24 25 24 23 22 22 21 19 19 19 20 20 20 20 20 20 19 19 19 19 19 19 19 19 19 19 19 19 18 18 18 18 18 18 18 18 18 18 17 17 17 17 17
20 18 19 20 21 23 25 25 24 22 22 22 21 19 18 19 20 20 20 20 19 19 19 19 19 19 19 19 19 19 19 19 18 18 18 18 18 18 18 18 18 18 18 17 17 17 17 17 17
21 18 20 20 22 23 24 24 24 23 22 22 22 20 19 19 19 19 19 19 19 19 19 19 19 19 19 19 19 19 19 18 18 18 18 18 18 18 17 17 17 17 17 17 17 17 17 17 17
22 18 19 20 22 24 24 24 24 23 22 21 21 21 21 20 19 18 18 18 18 18 19 19 19 19 19 19 19 18 18 18 18 18 18 17 17 17 17 17 17 17 17 17 17 17 17 17 17
21 18 20 22 23 24 24 24 23 22 21 20 20 20 20 19 19 18 18 18 18 18 18 19 19 19 19 18 18 18 18 18 18 18 17 17 17 17 17 17 17 17 17 17 17 17 17 17 17
20 20 21 23 25 25 24 24 24 22 21 21 21 20 20 19 18 18 18 18 19 19 18 18 19 18 18 18 18 18 18 18 18 18 17 17 17 17 17 17 17 17 17 17 17 17 17 17 17
21 21 23 25 26 25 24 24 22 22 22 23 23 22 20 19 19 19 19 19 18 18 18 19 18 18 18 18 18 18 18 18 18 17 17 17 17 17 17 17 17 17 17 17 17 17 17 16 16
23 23 25 26 26 25 24 23 22 21 22 23 22 20 20 19 19 19 19 19 19 18 19 18 18 18 18 18 18 18 18 18 17 17 17 17 17 17 17 17 16 16 16 16 16 16 16 16 16
24 24 24 25 25 25 23 22 22 21 21 21 20 20 20 19 19 19 18 19 19 19 19 19 18 18 18 18 18 18 18 18 17 17 17 17 17 17 16 16 16 16 16 16 16 16 16 16 16
24 23 23 24 24 24 23 22 21 21 21 20 19 19 19 19 19 19 19 19 19 19 19 19 18 18 18 18 18 18 18 17 17 17 17 17 17 16 16 16 16 16 16 15 15 16 16 16 16
23 22 23 23 23 24 24 23 21 21 20 19 18 18 18 18 19 19 19 19 19 19 19 19 18 18 18 18 18 18 17 17 17 17 17 17 16 16 16 16 16 15 15 15 15 15 15 16 16
21 21 22 23 23 23 23 22 21 20 19 19 18 18 18 18 18 19 19 19 19 19 19 18 18 18 18 18 18 17 17 17 17 17 17 17 16 16 16 16 15 15 15 15 15 15 15 15 15
22 22 22 22 23 23 22 20 20 19 19 19 18 18 18 18 19 19 19 18 18 18 18 18 18 18 18 18 17 17 17 17 17 17 17 16 16 16 16 15 15 15 15 15 15 15 15 15 15
23 22 21 22 23 22 21 20 20 19 19 18 18 18 18 18 19 18 18 18 18 18 18 18 18 18 18 18 17 17 17 17 17 17 17 16 16 16 16 15 15 15 15 15 15 15 15 15 15
22 22 22 22 23 22 21 20 20 19 18 18 18 18 18 18 18 18 18 18 18 18 18 18 18 18 18 18 18 18 17 17 17 17 16 16 16 16 15 15 15 15 15 15 15 15 15 15 15
23 22 22 22 22 21 21 21 20 19 19 19 19 18 19 18 18 18 18 18 18 18 18 17 17 18 18 18 17 17 17 17 17 16 16 16 16 15 15 15 15 15 15 15 15 15 15 15 15
22 23 23 23 21 20 20 20 20 19 18 18 18 18 18 19 18 19 18 18 18 18 18 18 18 17 18 18 17 17 17 17 17 17 16 16 16 15 15 15 15 15 15 14 14 14 15 15 15
23 23 22 21 21 19 19 19 19 18 19 18 18 18 19 19 19 19 19 18 18 18 18 18 17 17 17 17 17 17 17 17 17 17 16 16 16 15 15 15 15 15 14 14 14 14 14 15 15
23 22 20 18 18 19 19 19 19 18 19 19 18 19 19 19 19 19 19 18 18 18 18 18 17 17 17 17 17 17 17 17 17 17 16 16 16 16 15 15 15 15 15 14 14 14 14 14 15
23 20 19 20 18 19 19 18 18 19 19 19 19 19 19 20 19 19 19 19 18 18 18 17 17 17 17 17 17 17 17 17 17 17 17 16 16 16 16 15 15 15 15 14 14 14 14 14 14
21 20 19 20 19 19 19 19 19 20 20 20 20 20 20 20 20 19 19 19 19 18 18 18 17 17 17 17 17 17 17 17 17 17 17 16 16 16 16 15 15 15 15 14 14 14 14 14 14
21 19 19 18 18 18 18 18 19 20 19 19 19 19 19 20 20 20 20 19 19 18 18 18 18 17 17 17 17 17 17 17 17 17 17 17 16 16 16 16 15 15 15 15 14 14 14 14 14
22 18 17 17 19 19 20 19 19 20 20 19 18 19 20 20 20 20 20 19 19 19 19 18 18 18 18 17 17 17 17 17 17 17 17 17 16 16 16 16 16 15 15 15 15 14 14 14 14
20 19 17 16 17 18 19 19 19 19 19 19 18 19 20 20 20 20 20 20 19 19 19 18 18 18 18 17 17 17 17 17 17 17 17 17 16 16 16 16 16 16 15 15 15 15 14 14 14
21 19 17 19 18 16 17 18 19 18 18 18 19 19 20 20 20 20 20 19 19 19 19 18 18 18 18 18 17 17 17 17 17 17 17 17 16 16 16 16 16 16 16 15 15 15 14 14 14
Wind_Speed
5 4 2 1 3 3 3 4 2 2 1 2 3 3 5 5 4 3 2 11 17 17 18 21 21 20 19 19 18 18 18 17 17 16 16 15 15 14 13 13 12 12 12 11 11 12 11 12 12
4 3 1 2 3 2 5 4 3 3 3 3 3 3 3 1 2 5 6 11 18 17 17 20 21 20 19 19 18 18 17 17 16 15 15 14 14 13 12 12 12 12 11 11 11 12 12 11 12
3 2 3 3 1 3 5 3 3 1 4 2 3 2 2 2 4 6 7 14 16 14 16 20 22 21 20 19 18 17 17 16 15 14 13 13 12 12 12 11 11 11 11 11 11 11 11 11 11
2 3 4 3 4 5 5 4 3 3 1 1 3 2 2 1 4 7 13 16 16 13 16 20 22 21 20 19 18 17 16 16 15 14 13 12 12 11 11 10 10 10 10 10 10 10 10 10 10
3 4 4 3 6 6 5 5 6 5 3 3 4 3 1 3 6 14 16 17 16 12 13 19 22 21 20 19 18 17 16 15 14 13 12 11 11 10 10 9 9 9 9 9 9 9 9 9 9
4 4 3 3 6 5 3 4 6 5 3 3 5 4 0 2 10 14 14 13 14 14 12 16 21 20 19 18 18 17 15 14 14 13 12 11 10 10 9 9 8 8 8 8 8 8 7 7 7
4 3 2 4 5 5 2 3 6 5 5 5 5 5 1 4 8 11 11 11 10 11 10 11 15 18 19 18 17 16 15 14 13 12 11 10 10 9 8 7 7 7 6 6 6 6 6 6 6
5 4 2 4 5 5 2 2 3 4 4 3 5 6 5 7 9 9 10 9 9 9 8 7 10 13 14 15 16 15 14 14 13 12 11 10 9 8 7 6 6 6 5 5 5 5 4 4 4
4 3 3 5 5 5 2 2 2 3 5 3 2 3 5 15 14 12 10 9 9 9 6 7 7 9 11 12 14 14 14 13 12 10 10 8 6 6 5 5 5 5 4 4 3 3 3 3 3
4 3 7 6 5 5 4 4 5 5 4 2 1 4 12 17 16 16 15 14 13 11 8 6 7 8 9 10 10 10 10 10 9 8 7 7 6 4 3 3 4 4 4 3 2 2 2 3 3
7 7 6 7 7 5 4 4 5 8 5 7 8 11 16 16 15 15 15 14 13 11 10 8 7 7 7 5 7 7 7 8 7 7 7 7 5 4 3 2 1 2 2 2 2 3 3 3 3
6 9 8 6 4 3 4 4 4 5 6 6 11 16 17 17 16 15 15 13 11 10 9 8 7 7 6 6 6 6 6 6 5 6 7 7 4 3 3 2 2 2 2 2 2 2 2 3 2
6 6 5 6 6 3 2 3 3 2 2 9 14 15 16 16 14 11 10 10 10 11 10 9 8 7 6 5 5 6 5 5 6 6 6 7 5 3 3 2 2 2 2 1 1 1 2 2 2
5 6 7 6 3 1 3 1 2 2 6 11 14 14 14 14 13 11 11 12 11 11 10 9 8 7 6 5 4 5 6 7 7 6 7 8 7 5 4 3 3 2 2 2 2 2 2 2 2
4 6 8 4 2 1 3 1 2 4 9 11 12 12 12 11 12 13 13 12 11 10 9 9 8 7 7 6 5 5 6 7 6 6 8 8 8 7 6 3 2 2 3 3 3 3 3 2 2
4 5 6 7 2 1 2 5 4 5 9 9 10 11 11 9 11 11 11 9 9 9 9 9 10 9 8 6 5 5 6 7 7 7 8 8 8 9 7 4 3 4 4 4 3 2 2 2 2
6 5 7 8 3 0 2 6 3 4 6 7 8 9 9 9 9 9 10 10 9 9 9 9 7 8 8 7 5 6 6 6 7 8 7 8 8 9 8 4 3 5 4 3 2 2 2 2 2
5 6 7 8 5 1 3 6 2 4 6 7 7 7 8 9 10 10 10 10 11 9 8 8 7 8 8 6 5 4 5 4 5 6 7 8 8 9 8 5 4 5 3 3 3 3 3 2 2
5 5 10 10 5 2 4 5 4 4 4 5 6 6 7 8 6 7 8 10 11 10 9 9 9 8 8 6 6 5 4 4 3 4 7 8 9 9 8 5 4 4 3 3 3 2 3 3 1
5 6 7 8 4 1 3 4 2 3 6 7 8 8 8 7 6 7 7 8 10 11 11 9 10 10 9 7 5 4 5 3 3 2 4 7 8 9 7 6 4 4 4 4 3 2 2 2 2
5 5 7 7 4 4 3 5 3 1 2 2 4 5 6 9 9 9 9 9 10 12 12 12 11 10 10 8 6 5 4 4 3 2 2 3 7 8 8 8 6 4 4 3 2 2 4 3 2
6 5 5 4 1 4 3 4 6 2 3 4 4 5 7 7 8 9 9 9 10 11 10 11 11 10 10 10 10 10 7 5 5 4 4 3 6 7 8 8 7 5 4 4 2 2 2 4 2
6 1 2 1 2 2 3 1 7 2 4 5 6 6 7 8 9 9 10 9 9 9 10 10 10 10 10 11 11 11 7 5 4 4 5 4 3 5 7 8 7 5 4 4 3 3 3 2 3
3 5 6 5 5 2 3 1 6 4 5 5 5 6 7 8 9 8 8 7 7 7 8 9 10 10 10 11 11 11 10 9 8 7 6 5 3 3 5 7 6 6 5 5 4 3 4 3 3
4 5 4 6 5 5 2 2 8 7 5 6 5 6 6 7 9 8 8 9 8 9 10 9 10 9 10 10 10 11 11 11 10 9 8 7 5 4 6 6 6 5 5 6 5 4 3 3 3
6 9 7 5 5 6 3 5 7 6 5 4 4 4 5 6 8 9 9 9 9 10 10 10 11 10 10 11 10 9 10 8 7 8 8 8 7 6 7 7 7 7 7 7 5 4 3 3 3
7 5 6 7 3 2 6 7 8 3 2 1 1 3 4 6 7 8 8 9 9 10 10 11 11 10 10 11 10 9 9 8 8 8 7 6 6 6 7 8 7 7 7 7 6 4 4 4 3
5 9 6 6 5 3 6 5 5 6 4 2 1 2 3 4 5 5 6 8 8 8 8 9 10 10 10 10 10 9 9 9 8 8 8 8 8 7 8 8 8 8 8 7 7 5 4 5 4
5 5 5 5 5 6 4 7 6 8 5 3 3 2 4 5 6 6 6 7 7 7 8 9 9 9 9 10 9 8 8 8 8 8 9 8 7 8 9 9 9 9 9 8 8 7 6 6 5
6 8 8 6 5 5 4 8 5 5 3 2 2 1 2 4 5 5 5 6 6 7 7 8 9 9 9 10 9 9 8 8 8 8 8 8 8 8 9 8 9 9 9 9 10 9 8 8 8
Wind_Direction
185 159 144 130 63 41 276 258 242 241 217 209 163 161 164 164 173 198 130 144 140 147 153 152 149 145 141 137 135 132 129 128 127 126 127 127 127 128 128 128 127 123 120 117 113 111 111 112 115
139 151 134 70 79 1 282 248 234 229 178 125 107 98 100 114 77 114 136 147 143 146 150 153 152 148 145 142 139 136 133 131 130 129 129 129 129 130 130 128 126 124 121 118 114 112 111 113 116
141 154 88 69 113 213 261 245 222 168 147 145 121 94 123 160 143 149 157 146 140 144 149 155 153 151 148 146 143 139 137 135 133 133 133 132 131 130 128 127 126 125 124 121 117 114 113 113 116
113 61 57 59 261 242 236 241 181 153 163 148 135 117 83 48 157 153 145 145 142 144 151 157 154 153 151 149 146 144 142 140 138 138 138 136 133 131 129 128 126 124 124 122 120 117 115 115 117
68 80 50 335 267 257 241 221 179 173 188 167 146 145 83 2 120 137 144 148 146 145 150 157 156 155 153 152 150 148 147 145 143 141 140 139 136 135 134 132 129 127 125 123 122 120 116 114 116
64 68 66 291 279 275 267 193 160 165 167 148 143 141 45 106 135 142 144 147 149 148 147 155 158 156 155 155 155 153 151 149 147 146 146 146 142 139 140 139 137 136 133 128 124 122 119 113 114
117 108 209 258 281 288 264 148 154 160 167 178 152 138 143 151 150 141 137 138 142 143 143 149 156 158 158 159 158 155 154 153 152 152 152 150 147 144 144 144 141 140 140 137 134 129 122 116 114
141 111 274 265 259 270 240 135 150 152 170 142 139 158 185 170 148 131 128 130 133 137 142 140 147 151 154 159 161 160 158 158 157 157 159 157 153 150 149 149 150 148 148 146 143 137 128 116 112
115 82 250 241 236 258 218 167 141 130 125 133 150 172 160 142 143 138 138 139 146 152 150 144 143 144 148 155 164 163 162 163 160 161 162 151 135 135 145 158 162 159 160 156 151 147 132 111 104
124 181 235 225 223 243 246 204 169 145 144 160 104 101 131 144 153 158 161 162 163 168 168 155 151 146 148 158 157 155 155 156 152 149 145 135 132 137 150 168 164 158 156 152 136 131 112 100 101
176 210 246 258 242 234 234 211 170 155 187 201 184 154 150 156 164 170 172 172 170 168 169 165 158 149 149 143 144 141 138 139 138 142 142 137 132 133 127 122 109 102 112 90 74 73 77 92 117
200 244 242 269 254 223 212 177 166 180 215 185 161 153 158 166 174 178 178 174 167 169 173 166 157 151 152 142 141 140 137 138 140 149 152 144 135 133 128 123 118 98 96 90 72 71 70 74 99
224 263 259 254 272 243 190 174 168 209 174 124 137 150 164 172 175 174 173 171 170 174 173 172 162 158 152 141 149 150 147 149 151 152 159 155 146 141 135 122 119 116 114 107 94 85 82 74 76
258 272 287 284 276 208 149 179 126 211 137 136 149 164 172 176 175 172 175 178 180 180 176 171 168 160 152 153 152 148 151 148 146 150 158 158 153 148 135 117 111 103 113 122 110 99 95 78 78
306 318 324 323 333 276 122 324 223 180 148 154 165 172 175 174 177 182 183 181 180 180 175 174 171 161 159 159 158 150 149 148 144 146 153 154 152 148 136 123 116 111 115 109 92 80 77 78 73
4 19 336 304 309 299 155 266 242 158 159 166 173 177 180 181 185 187 181 174 176 177 176 180 179 167 165 159 152 144 145 143 141 144 146 146 147 144 132 125 124 122 111 100 92 76 72 63 66
26 350 304 304 294 301 191 253 251 165 171 177 178 182 183 182 191 190 179 174 177 181 175 175 170 163 161 152 144 137 136 136 139 141 138 139 140 140 130 123 121 121 104 89 95 67 82 82 74
305 309 297 294 291 294 253 258 257 189 187 191 185 183 184 193 199 192 184 179 176 176 172 170 161 156 147 136 124 113 113 119 130 138 143 142 142 139 127 117 116 116 104 90 83 83 66 72 70
249 268 284 283 291 238 249 265 255 202 195 204 202 195 196 203 193 180 184 182 175 174 176 170 165 158 151 149 148 145 149 147 139 145 150 149 146 142 132 122 115 113 112 115 113 102 81 56 43
240 281 288 300 345 23 291 292 269 197 208 212 209 207 204 187 171 177 179 176 180 182 186 179 175 168 167 166 158 148 141 140 139 134 144 155 150 148 143 136 135 127 113 97 93 111 108 61 43
275 246 264 278 322 21 0 326 309 297 250 237 223 214 207 194 189 186 187 187 185 187 188 187 185 179 170 158 137 119 100 90 111 136 152 164 160 155 149 150 144 141 132 126 121 124 125 119 55
274 254 243 272 333 314 12 296 295 296 293 249 232 214 212 203 195 192 192 191 193 191 187 182 180 175 168 162 162 160 162 165 182 174 170 162 165 162 157 154 151 147 140 141 145 130 127 131 128
228 347 62 33 132 349 354 258 292 310 279 260 237 221 213 203 196 194 196 195 190 184 181 177 175 176 172 172 172 167 164 161 149 151 158 163 165 170 166 160 156 153 150 152 142 127 122 128 142
164 66 48 51 66 330 287 215 284 252 239 258 240 223 211 200 194 193 189 180 176 174 174 175 175 178 176 176 175 174 170 164 159 168 173 173 169 173 175 168 167 165 160 160 157 145 132 125 124
118 90 16 350 360 263 280 244 254 255 238 230 234 225 216 202 192 188 181 180 181 174 173 174 175 178 178 177 181 182 178 174 177 178 181 176 178 189 192 176 174 175 176 169 158 153 152 148 141
180 149 164 210 236 278 313 250 257 259 263 241 215 200 193 196 198 194 191 186 185 180 176 174 179 182 179 183 186 184 180 179 183 181 180 186 191 194 185 182 185 186 179 173 165 161 169 165 163
148 174 163 140 161 281 286 287 302 282 291 228 158 151 180 200 198 195 190 185 185 184 181 180 181 182 183 185 182 183 181 182 185 184 184 190 192 191 185 186 188 190 185 177 169 177 182 175 181
150 143 110 129 154 252 286 281 259 275 275 272 203 183 196 187 186 185 187 187 186 186 179 177 180 185 184 182 185 188 187 190 187 181 187 194 194 189 184 190 193 194 191 185 179 183 187 184 191
132 122 121 124 152 169 244 269 230 229 234 230 233 201 187 180 183 186 190 186 179 173 173 177 179 182 183 184 186 183 185 187 184 189 196 196 193 190 193 197 197 198 196 191 189 196 191 196 204
174 171 151 158 204 182 190 262 268 226 225 197 218 209 177 174 171 169 167 162 165 173 178 182 183 186 187 184 183 183 180 180 186 196 200 196 197 198 201 201 202 204 201 195 196 203 201 203 210
Height
1504 1504 1505 1506 1508 1514 1512 1503 1496 1495 1494 1492 1493 1494 1494 1496 1501 1504 1498 1498 1503 1508 1513 1517 1521 1524 1526 1528 1530 1531 1533 1534 1535 1537 1538 1539 1540 1542 1543 1544 1545 1545 1546 1546 1547 1548 1548 1549 1550
1504 1504 1506 1506 1511 1520 1512 1498 1495 1492 1491 1492 1493 1493 1494 1495 1495 1495 1495 1499 1504 1508 1513 1517 1521 1524 1527 1529 1531 1532 1534 1535 1537 1538 1539 1541 1542 1543 1545 1545 1546 1547 1547 1548 1549 1549 1550 1551 1551
1504 1504 1506 1507 1512 1515 1506 1494 1492 1490 1491 1492 1492 1493 1494 1494 1494 1494 1495 1499 1504 1509 1513 1517 1521 1524 1527 1529 1531 1533 1535 1536 1538 1540 1541 1542 1544 1545 1546 1547 1548 1548 1549 1550 1550 1551 1552 1553 1553
1504 1506 1507 1511 1512 1503 1496 1490 1489 1490 1491 1491 1492 1493 1493 1494 1494 1494 1496 1500 1504 1509 1514 1517 1521 1524 1527 1530 1532 1534 1536 1538 1539 1541 1542 1544 1545 1546 1547 1548 1549 1550 1551 1551 1552 1553 1554 1555 1555
1504 1505 1510 1515 1509 1497 1489 1486 1488 1489 1490 1490 1491 1492 1493 1494 1493 1495 1497 1501 1505 1510 1514 1518 1521 1525 1528 1530 1533 1535 1537 1539 1540 1542 1544 1545 1546 1548 1549 1550 1551 1552 1552 1553 1554 1555 1555 1556 1557
1505 1506 1516 1518 1506 1492 1486 1484 1486 1488 1489 1490 1491 1492 1493 1493 1494 1496 1499 1503 1507 1510 1515 1519 1522 1525 1528 1531 1533 1536 1538 1540 1541 1543 1544 1546 1547 1549 1550 1551 1552 1553 1554 1554 1555 1556 1557 1558 1559
1506 1509 1514 1511 1505 1494 1486 1484 1485 1487 1488 1489 1490 1492 1492 1493 1495 1497 1500 1504 1508 1512 1515 1519 1522 1526 1529 1532 1534 1536 1538 1540 1542 1544 1545 1547 1548 1550 1551 1552 1553 1554 1555 1556 1556 1557 1558 1559 1560
1504 1508 1511 1510 1503 1494 1485 1484 1485 1486 1488 1488 1489 1490 1490 1492 1495 1498 1501 1504 1508 1512 1516 1519 1523 1526 1529 1532 1535 1537 1539 1541 1543 1545 1546 1548 1549 1550 1552 1553 1554 1554 1555 1556 1557 1558 1559 1560 1561
1503 1511 1514 1505 1498 1490 1484 1484 1485 1485 1486 1487 1488 1488 1488 1491 1494 1498 1501 1505 1509 1513 1516 1520 1523 1526 1529 1532 1535 1537 1540 1542 1543 1545 1547 1549 1550 1551 1552 1553 1554 1555 1556 1557 1557 1558 1559 1560 1561
1502 1511 1503 1492 1487 1485 1483 1482 1483 1485 1486 1487 1487 1487 1488 1490 1493 1496 1499 1502 1507 1512 1516 1520 1524 1526 1529 1532 1535 1537 1540 1542 1544 1546 1547 1549 1550 1551 1553 1554 1555 1555 1556 1557 1558 1559 1559 1560 1561
1499 1500 1491 1485 1483 1482 1481 1480 1481 1482 1485 1483 1482 1484 1486 1490 1493 1496 1498 1502 1505 1511 1515 1519 1523 1526 1529 1532 1535 1538 1540 1543 1544 1546 1548 1549 1551 1552 1553 1554 1555 1556 1556 1557 1558 1559 1559 1561 1562
1496 1490 1487 1483 1480 1480 1479 1479 1480 1480 1479 1478 1480 1483 1486 1488 1491 1493 1497 1501 1505 1510 1514 1519 1522 1526 1529 1532 1535 1538 1541 1543 1545 1547 1548 1550 1551 1552 1553 1554 1555 1556 1557 1557 1558 1559 1560 1561 1562
1492 1487 1483 1480 1478 1478 1478 1478 1479 1479 1478 1478 1480 1483 1485 1487 1490 1493 1496 1500 1504 1509 1513 1518 1522 1526 1529 1532 1535 1538 1541 1543 1545 1547 1549 1550 1551 1552 1553 1554 1555 1556 1557 1557 1558 1559 1560 1561 1562
1487 1484 1481 1478 1476 1476 1477 1478 1478 1478 1477 1478 1479 1481 1484 1486 1489 1493 1496 1499 1503 1508 1513 1517 1521 1525 1529 1532 1535 1538 1541 1544 1546 1547 1549 1550 1551 1552 1553 1554 1555 1556 1557 1557 1558 1559 1560 1561 1562
1486 1485 1481 1477 1476 1476 1477 1479 1478 1476 1476 1477 1479 1481 1483 1485 1489 1491 1495 1499 1504 1508 1513 1517 1521 1525 1529 1532 1535 1538 1541 1544 1546 1547 1549 1550 1551 1552 1553 1554 1554 1555 1556 1557 1558 1559 1560 1561 1562
1487 1491 1493 1481 1477 1476 1481 1485 1476 1476 1476 1478 1479 1481 1483 1485 1487 1491 1495 1499 1504 1507 1512 1517 1520 1524 1528 1532 1535 1538 1541 1543 1545 1547 1548 1550 1551 1552 1552 1553 1554 1555 1556 1557 1558 1559 1560 1561 1561
1497 1503 1498 1487 1477 1477 1480 1482 1475 1476 1477 1478 1480 1481 1483 1485 1488 1491 1494 1498 1503 1507 1511 1515 1519 1523 1527 1531 1535 1538 1541 1543 1545 1547 1548 1549 1550 1551 1552 1553 1554 1555 1556 1556 1557 1558 1560 1561 1561
1504 1502 1497 1492 1480 1478 1481 1480 1476 1476 1477 1477 1479 1481 1483 1485 1486 1490 1493 1496 1500 1506 1510 1514 1518 1522 1526 1530 1534 1537 1540 1542 1545 1546 1548 1549 1550 1551 1552 1553 1554 1554 1555 1556 1557 1558 1559 1560 1561
1494 1497 1498 1487 1477 1479 1481 1480 1476 1476 1477 1478 1478 1480 1481 1483 1486 1489 1492 1495 1499 1504 1508 1512 1516 1520 1524 1528 1531 1535 1538 1541 1544 1545 1547 1548 1550 1551 1551 1552 1553 1554 1555 1556 1557 1558 1559 1560 1561
1492 1496 1494 1483 1477 1479 1482 1480 1476 1475 1475 1476 1476 1478 1479 1482 1485 1488 1490 1494 1497 1501 1505 1509 1514 1518 1522 1526 1530 1534 1537 1540 1543 1545 1546 1548 1549 1550 1551 1552 1553 1554 1555 1556 1556 1558 1559 1560 1561
1489 1492 1490 1487 1480 1480 1483 1485 1478 1475 1475 1476 1476 1477 1479 1480 1482 1485 1489 1492 1495 1498 1502 1506 1511 1515 1520 1524 1529 1532 1536 1539 1541 1543 1545 1547 1549 1550 1551 1552 1553 1554 1554 1555 1556 1557 1558 1559 1560
1491 1480 1481 1483 1490 1496 1491 1501 1484 1478 1477 1475 1475 1476 1477 1479 1481 1484 1486 1489 1492 1495 1499 1503 1508 1513 1517 1522 1525 1529 1532 1535 1539 1542 1544 1546 1548 1550 1551 1552 1553 1553 1554 1554 1555 1557 1558 1559 1560
1480 1477 1480 1484 1490 1498 1496 1501 1492 1481 1479 1474 1473 1473 1474 1476 1479 1482 1484 1487 1491 1494 1497 1501 1506 1510 1515 1519 1523 1527 1530 1534 1538 1541 1543 1545 1547 1549 1550 1551 1552 1553 1553 1554 1555 1556 1557 1558 1559
1473 1479 1485 1493 1500 1508 1499 1502 1497 1484 1476 1472 1470 1471 1472 1474 1477 1479 1483 1486 1489 1493 1496 1500 1503 1508 1512 1517 1521 1524 1528 1533 1536 1539 1542 1544 1546 1548 1549 1550 1551 1552 1553 1554 1554 1555 1556 1557 1558
1475 1492 1510 1511 1517 1511 1498 1500 1494 1473 1469 1468 1468 1468 1469 1471 1474 1477 1480 1483 1486 1490 1494 1497 1501 1506 1510 1514 1518 1522 1526 1530 1534 1537 1540 1542 1544 1546 1547 1549 1550 1551 1552 1553 1553 1554 1555 1556 1557
1477 1486 1508 1517 1519 1510 1498 1499 1482 1466 1465 1465 1466 1466 1468 1470 1472 1475 1477 1481 1484 1488 1491 1495 1499 1503 1507 1512 1516 1520 1524 1528 1531 1535 1538 1540 1542 1544 1546 1547 1549 1550 1551 1551 1552 1553 1553 1554 1555
1476 1484 1484 1502 1507 1511 1503 1492 1475 1464 1464 1464 1464 1465 1466 1468 1470 1473 1476 1479 1483 1486 1489 1493 1497 1501 1505 1509 1513 1517 1521 1525 1528 1532 1535 1538 1540 1542 1544 1546 1547 1548 1549 1550 1550 1551 1552 1553 1553
1466 1476 1491 1502 1512 1514 1502 1495 1487 1469 1465 1463 1463 1464 1464 1466 1469 1471 1474 1477 1481 1484 1487 1491 1495 1499 1503 1507 1511 1514 1518 1522 1526 1529 1532 1535 1537 1539 1542 1543 1545 1546 1547 1548 1548 1549 1550 1551 1552
1471 1478 1486 1497 1500 1511 1512 1497 1468 1465 1462 1462 1462 1462 1463 1465 1467 1470 1473 1475 1479 1483 1486 1489 1493 1497 1501 1505 1508 1512 1515 1519 1523 1526 1529 1531 1534 1536 1539 1541 1542 1543 1544 1545 1546 1547 1548 1549 1550
1461 1469 1480 1491 1497 1501 1504 1493 1459 1459 1459 1460 1460 1461 1462 1464 1467 1469 1472 1474 1477 1481 1484 1488 1491 1494 1498 1502 1506 1509 1513 1516 1519 1522 1525 1528 1530 1533 1535 1537 1539 1540 1541 1542 1543 1544 1545 1546 1547